Regional Weather Roundup
Issued by NWS

Home | Current Version | Previous Version | Text Only | Print | Product List | Glossary Off
Versions: 1 2 3 4 5 6 7 8 9 10 11 12 13 14 15 16 17 18 19 20 21 22 23 24 25 26 27 28

000
ASUS45 KCYS 181910
RWRWY

WYOMING REGIONAL WEATHER ROUNDUP
NATIONAL WEATHER SERVICE CHEYENNE WY
1200 PM MST SUN FEB 18 2018

NOTE:  "FAIR" INDICATES FEW OR NO CLOUDS BELOW 12,000 FEET
WITH NO SIGNIFICANT WEATHER AND/OR OBSTRUCTIONS TO VISIBILITY.

WYZ001-182000-
YELLOWSTONE NATIONAL PARK

CITY           SKY/WX    TMP DP  RH WIND       PRES   REMARKS
LK YELLOWSTONE   N/A     22  19  89 VRB7      29.41F WCI  13
W YELLOWSTONE  NOT AVBL

$$
WYZ002>013-054>058-071-098>099-182000-
NORTHERN WYOMING

CITY           SKY/WX    TMP DP  RH WIND       PRES   REMARKS
JACKSON        FLURRIES  30  20  66 S18       29.46F WCI  18
CODY           LGT SNOW  11   5  77 N18G26    29.65S WCI  -7
GREYBULL       SNOW      11   8  88 NW33G43   29.63R VSB 1/4 WCI -12
WORLAND        LGT SNOW  15   9  76 NW12      29.66R WCI   2
SHERIDAN       LGT SNOW   8   4  83 NW15      29.77R VSB 3/4 WCI  -9
BUFFALO        HVY SNOW   6   1  80 N23G31    29.67R VSB 1/4 WCI -15
GILLETTE       HAZE      11   6  81 N21       29.67S VSB 3/4 WCI  -8
HULETT         LGT SNOW  12   9  85 MISG      29.70R VSB 3/4
NEWCASTLE      FAIR      21  14  73 NW23G31   29.56S WCI   5

$$
WYZ014>020-022>026-101>103-182000-
CENTRAL WYOMING

CITY           SKY/WX    TMP DP  RH WIND       PRES   REMARKS
BIG PINEY      CLOUDY    30  18  60 NW15G25   29.51F WCI  19
PINEDALE       CLOUDY    28  18  64 NW20G26   29.51F WCI  15
DUBOIS         NOT AVBL
LANDER         CLOUDY    32  29  88 NE6       29.45R WCI  26
RIVERTON       LGT SNOW  27  22  81 NE17      29.46R WCI  14
CASPER         CLOUDY    17  11  77 NE18      29.57R WCI   1
DOUGLAS        CLOUDY    27  19  72 N22       29.56R WCI  13

$$
WYZ021-027>030-104>119-182000-
SOUTHERN WYOMING

CITY           SKY/WX    TMP DP  RH WIND       PRES   REMARKS
EVANSTON       CLOUDY    38  20  48 SW23G31   29.51F WCI  27
FORT BRIDGER   MOCLDY    42  24  48 W29G37    29.54S
ROCK SPRINGS   CLOUDY    47  13  25 SW26G36   29.48F
DIXON          MOCLDY    45  20  37 SW18G25   29.59S
RAWLINS        PTSUNNY   43  17  35 SW30G43   29.49F
SARATOGA       FAIR      46  16  29 SW30G44   29.52F
LARAMIE        FAIR      50  13  22 SW41G54   29.49S
CHEYENNE       FAIR      57  10  15 W31G41    29.49F
TORRINGTON     FAIR      54  25  32 N17       29.44F
PINE BLUFFS    FAIR      59  10  14 S13G18    29.47F

$$




USA.gov is the U.S. government's official web portal to all federal, state and local government web resources and services.